This is the latest recevied weather packets stored in our database for station/object N4DBJ. If no packets are shown the sender has not sent any weather packets the latest 10 day(s).
| Time | Temp. | Humidity | Pressure | Rain* | Wind** | Luminosity | Snow |
|---|---|---|---|---|---|---|---|
| 1777822134 | 15.56° C | 47% | 1019 hPa | 0 mm | - | 742 W/m² | - |
| 1777821831 | 15° C | 45% | 1019.3 hPa | 0 mm | - | 767 W/m² | - |
| 1777821528 | 15° C | 45% | 1019.4 hPa | 0 mm | - | 779 W/m² | - |
| 1777821226 | 15° C | 41% | 1019.2 hPa | 0 mm | - | 751 W/m² | - |
| 1777820923 | 15° C | 44% | 1019.4 hPa | 0 mm | - | 730 W/m² | - |
| 1777820619 | 15° C | 43% | 1019.5 hPa | 0 mm | - | 701 W/m² | - |
| 1777820316 | 14.44° C | 42% | 1019.5 hPa | 0 mm | - | 705 W/m² | - |
| 1777820014 | 14.44° C | 55% | 1019.4 hPa | 0 mm | - | 689 W/m² | - |
| 1777819710 | 13.89° C | 49% | 1019.4 hPa | 0 mm | - | 679 W/m² | - |
| 1777819409 | 13.89° C | 47% | 1019.5 hPa | 0 mm | - | 651 W/m² | - |
| 1777819106 | 14.44° C | 50% | 1019.3 hPa | 0 mm | - | 626 W/m² | - |
| 1777818802 | 13.89° C | 49% | 1019.3 hPa | 0 mm | - | 606 W/m² | - |
| 1777818498 | 13.89° C | 57% | 1019.2 hPa | 0 mm | - | 556 W/m² | - |
| 1777818196 | 12.78° C | 57% | 1019.3 hPa | 0 mm | - | 598 W/m² | - |
| 1777817892 | 12.78° C | 51% | 1019 hPa | 0 mm | - | 578 W/m² | - |
| 1777817590 | 12.22° C | 58% | 1019.2 hPa | 0 mm | - | 607 W/m² | - |
| 1777817286 | 12.22° C | 62% | 1019.2 hPa | 0 mm | - | 612 W/m² | - |
| 1777816983 | 11.11° C | 64% | 1019.3 hPa | 0 mm | - | 581 W/m² | - |
| 1777816679 | 10.56° C | 78% | 1019.1 hPa | 0 mm | - | 606 W/m² | - |
| 1777816376 | 10° C | 94% | 1019.2 hPa | 0 mm | - | 601 W/m² | - |
| 1777816075 | 9.44° C | 99% | 1019.2 hPa | 0 mm | - | 571 W/m² | - |
| 1777815772 | 8.89° C | 99% | 1019.2 hPa | 0 mm | - | 475 W/m² | - |
| 1777815469 | 8.89° C | 99% | 1019.1 hPa | 0 mm | - | 485 W/m² | - |
| 1777815166 | 7.78° C | 99% | 1019.1 hPa | 0 mm | - | 622 W/m² | - |
| 1777814863 | 7.78° C | 99% | 1019.3 hPa | 0 mm | - | 63 W/m² | - |
* Rain latest hour (hover to see other rain measurements)
** Current wind speed in m/s (hover to see current wind gust speed)